Weather in Brigadirovka

Russia / Ulyanovsk Oblast     54°18′18″N   49°46′26″E
temp.,
°C
wind,
m/s
gust,
m/s
humid.,
%
clouds,
%
prec.,
mm/h
press.,
hPa
HPBL,
m
2 december, thu
thu201:00−1wsw498576 0.0 996469
04:00−3wsw49875 0.0 998310
07:00−4sw38875 0.0 1000245
10:00−3ssw4108789 0.0 1002466
13:000sw5108494 0.2 1003958
16:00−1w597372 0.6 1004740
19:00−3wsw497817 0.0 1007369
22:00−4wsw398125 0.0 1008331
3 december, fri
fri301:00−3sw41080100 0.0 1009611
04:00−3sw51182100 0.0 1009565
07:00−2ssw51192100 0.6 1008641
10:00−1sw5129699 0.9 1009578
13:00+1sw51397100 0.4 1010582
16:00+2sw51398100 0.4 1011590
19:00+2sw51197100 0.0 1014469
22:00+2ssw51197100 0.0 1014384
4 december, sat
sat401:00+2ssw51398100 0.0 1014445
04:00+3ssw61597100 0.0 1014557
07:00+3ssw7188315 0.0 1013566
10:00+2ssw8208299 0.0 1012729
13:00+3ssw91988100 0.0 1010821
16:00+3ssw71697100 2.1 1010858
19:00+2sw51198100 3.3 1010714
22:00+1wsw3799100 5.8 1011386
5 december, sun
sun501:000wsw2595100 0.3 1012252
04:000w279223 0.3 1013296
07:00−3w38895 0.0 1014312
10:00−3w38866 0.0 1016604
13:00−1wnw4776100 0.0 1018844
16:00−2wnw3678100 0.0 1019400
19:00−3w248347 0.0 1021219
22:00−4w248651 0.0 1022156
6 december, mon
mon601:00−4wnw248694 0.0 1024187
04:00−4wnw2487100 0.0 1025186
07:00−4nw2482100 0.0 1026330
10:00−4n3480100 0.0 1028540
13:00−5nne3471100 0.0 1030600
16:00−6nne347094 0.0 1031508
19:00−7ne347380 0.0 1033383
22:00−8ene3574100 0.0 1034353